sat.trackr.live / text

‹ back to catalog

STARLINK-31017

NORAD 58515 · 2023-191H

PAYLOAD ACTIVE UNKNOWN

§ Identity

Operator
Country
US
Launch date
2023-12-07
Launch site
AFETR
Launch vehicle
Mass (kg)
RCS (m²)

Purposes: comms

External: N2YO · Heavens-Above · Gunter

§ Orbital elements

Epoch: 2026-09-20T13:42:11.979072Z

Period
94.27 min
Inclination
43.0036°
Eccentricity
0.0000757
Mean motion
15.27577531 rev/d
Perigee alt
482.5 km
Apogee alt
483.6 km
Semi-major
6,861.2 km
B*
1.9500e-5
RAAN
210.5754°
Arg perigee
277.6141°
Mean anomaly
82.4625°
Rev number
15,798

§ Raw data

STARLINK-310171 58515U 23191H   26263.57097198  .00000275  00000+0  19500-4 0  99972 58515  43.0036 210.5754 0000757 277.6141  82.4625 15.27577531157983

JSON: /api/v1/satellites/58515 · /tle

For live sub-satellite position, see the globe view (requires WebGL).

§ Visibility from observer

Set your observer location to see the next 7 days of passes ≥ 10°. The values pass through the URL so the page stays shareable.

No JS? Fill the form by hand. The geolocation button needs JavaScript.